Rbgn^[z[y[W
メイン
   新天体発見情報
     Comet C/2017 E3 (PANSTARRS)
投稿するにはまず登録を

スレッド表示 | 新しいものから 前のトピック | 次のトピック | 下へ
投稿者 スレッド
佐藤裕久
投稿日時: 2017-3-18 8:13
モデレータ
登録日: 2005-6-12
居住地: 日本
投稿: 1791
オンライン
Comet C/2017 E3 (PANSTARRS)

Eva Lilly、Rob WerykとRichard Wainscoat (ハワイ大学天文学研究所)の通報によると、3月7日、Haleakala
にある1.8-m Pan-STARRS1望遠鏡で得た i-バンド画像から彗星を発見した。
この天体は、南南西におよそ8" 伸びた幅広い尾が見え、コマの半値全幅(FWHM)は1".8、(比較した隣接する
恒星は1".1)であった。
小惑星センターのPCCP webpageに公表後、佐藤英貴氏(東京都文京区, iTelescope天文台,3月8.7日UT, 
0.51-m f/6.8 アストログラフ+輝度フィルター, Siding Spring, 遠隔操作:強い集光した丸い15"のコマが
あるが明かな尾はない。8".8の円形範囲で測定したこの彗星のw-バンド光度は16.1-16.4等であった)らCCD
位置観測者によって彗星状と観測された。

発見位置は次のとおり、

     2017 UT             R.A. (2000) Decl.       Mag.
     Mar.  7.52715   13 10 09.95   -47 17 37.3   19.2
           7.54009   13 10 09.62   -47 17 34.9   19.2
           7.54655   13 10 09.41   -47 17 33.2   18.9

暫定放物線軌道要素と位置推算表は次のとおり、

Orbital elements:
    C/2017 E3 (PANSTARRS)
T 2016 Sept. 5.42369 TT                                 MPCW
q   5.6906501            (2000.0)            P               Q
                   Peri.  306.43153     -0.63953064     -0.44664091
                   Node   222.34133     +0.13227446     -0.86570664
e   1.0            Incl.   68.27611     -0.75730048     +0.22597327
From 62 observations 2017 Mar. 7-13.

Ephemeris:
    C/2017 E3 (PANSTARRS)
Date    TT    R. A. (2000) Decl.     Delta      r     Elong.  Phase   m1
2017 02 11    13 16 03.3 -47 53 40   5.5280  5.8040   101.4     9.6  18.4
...
2017 02 26    13 13 23.2 -47 41 16   5.3576  5.8261   113.7     9.0  18.3
...
2017 03 06    13 10 45.0 -47 22 18   5.2766  5.8387   120.2     8.4  18.3
...
2017 03 12    13 08 19.6 -47 01 47   5.2222  5.8484   125.0     8.0  18.3
2017 03 13    13 07 53.5 -46 57 50   5.2137  5.8501   125.7     7.9  18.3
2017 03 14    13 07 26.9 -46 53 43   5.2055  5.8517   126.5     7.8  18.3
...
2017 03 20    13 04 38.3 -46 25 41   5.1598  5.8619   131.0     7.4  18.2
...
2017 03 28    13 00 36.4 -45 39 25   5.1107  5.8759   136.6     6.7  18.2
...
2017 04 12    12 52 53.9 -43 46 32   5.0609  5.9035   144.3     5.7  18.2

(CBET 4372、MPEC 2017-E85)

スレッド表示 | 新しいものから 前のトピック | 次のトピック | トップ

投稿するにはまず登録を
 
© 1999-2013 Tsutomu Seki.